Home > Weather > Lexington-Fayette > Past weeks

Flag for USA Past Weather in Lexington-Fayette, Kentucky, USA — Yesterday and Last 2 Weeks

Now
71 °F

Clear.


Feels Like: 68 °F
Forecast: 69 / 89 °F
Wind: No wind

Location: Blue Grass Airport

Current Time: Aug 29, 2016 at 5:13:19 AM

Latest Report: Aug 29, 2016 at 3:54 AM


Visibility: 10 mi

Pressure: 30.15 "Hg

Humidity: 90%

Dew Point: 68 °F

Location of Lexington-FayetteLocation

Past Weather in Lexington-Fayette — Graph

°F

Lexington-Fayette Temperature Yesterday

Maximum temperature yesterday: 92 °F (at 1:54 PM)
Minimum temperature yesterday: 71 °F (at 6:54 AM)
Average temperature yesterday: 77 °F

High & Low Weather Summary for the Past Weeks

 TemperatureHumidityPressure
High93 °F (Aug 27, 3:54 PM)97% (Aug 17, 5:54 AM)30.29 "Hg (Aug 17, 5:54 AM)
Low59 °F (Aug 22, 5:54 AM)38% (Aug 22, 2:54 PM)29.76 "Hg (Aug 20, 7:54 PM)
Average76 °F77%30.08 "Hg
* Reported Aug 14 3:54 AM — Aug 29 3:54 AM, Lexington-Fayette, Weather by CustomWeather, © 2016

Note: Actual official high and low records may vary slightly from our data, if they occured in-between our weather recording intervals... More about our weather records

Advertising

Lexington-Fayette Weather History for the Previous 24 Hours

Scroll right to see more
 ConditionsComfort  
Time TempWeatherWind HumidityBarometerVisibility
3:54 AM
Mon, Aug 29
71 °FClear.No wind90%30.15 "Hg10 mi
2:54 AM72 °FClear.5 mph87%30.14 "Hg10 mi
1:54 AM71 °FClear.3 mph90%30.15 "Hg10 mi
12:54 AM72 °FClear.3 mph87%30.16 "Hg10 mi
11:54 PM
Sun, Aug 28
72 °FClear.8 mph87%30.16 "Hg10 mi
10:54 PM72 °FClear.8 mph87%30.18 "Hg10 mi
9:54 PM72 °FClear.9 mph84%30.16 "Hg10 mi
8:54 PM75 °FSunny.5 mph71%30.14 "Hg10 mi
7:54 PM76 °FSunny.No wind72%30.14 "Hg10 mi
7:02 PM78 °FPassing clouds.14 mph69%30.18 "Hg10 mi
6:54 PM78 °FThundershowers. Passing clouds.10 mph69%30.16 "Hg10 mi
5:54 PM75 °FPartly sunny.9 mph76%30.15 "Hg10 mi
4:54 PM74 °FSunny.7 mph76%30.14 "Hg10 mi
3:54 PM74 °FThunderstorms. Scattered clouds.14 mph79%30.14 "Hg10 mi
2:54 PM80 °FThunderstorms. Mostly cloudy.24 mph64%30.14 "Hg10 mi
1:54 PM92 °FScattered clouds.3 mph52%30.16 "Hg10 mi
12:54 PM90 °FSunny.No wind56%30.17 "Hg10 mi
11:54 AM87 °FPassing clouds.No wind61%30.18 "Hg10 mi
10:54 AM85 °FSunny.No wind68%30.19 "Hg10 mi
9:54 AM82 °FSunny.5 mph74%30.17 "Hg10 mi
8:54 AM76 °FSunny.No wind88%30.17 "Hg10 mi
7:54 AM72 °FClear.No wind91%30.16 "Hg7 mi
6:54 AM71 °FFog.No wind90%30.15 "Hg6 mi
5:54 AM72 °FClear.3 mph91%30.12 "Hg9 mi
Weather by CustomWeather, © 2016

See weather overviewHow to use our weather pages